Location: Cornospital
(48.0620°N, 3.3837°W)
Time: 16:23:04
(UTC+00:00)

USA 267 - Pass Details

Date: 17 June 2021
Orbit: 1102 x 1106 km, 123.0° (Epoch: 28 July)

Event Time Altitude Azimuth Distance (km) Brightness Sun altitude
Rises 21:29:40 0° 88° (E) 3,919 5.8 -9.5°
Reaches altitude 10° 21:32:15 10° 83° (E) 2,963 5.2 -9.8°
Maximum altitude 21:38:23 46° 13° (NNE) 1,456 4.3 -10.4°
Drops below altitude 10° 21:44:33 10° 303° (WNW) 2,969 6.7 -11.0°
Sets 21:47:08 0° 298° (WNW) 3,928 7.4 -11.3°
